Olympia, WA

6:39 AM PDT on September 27, 2016 (GMT -0700)
Olympia

Weather History for KOLM - May, 2014

Change the Weather History Date:

Friday, May 9, 2014

  Actual Average Record
Temperature  
Mean Temperature 50 °F 53 °F  
Max Temperature 54 °F 64 °F 85 °F (1987)
Min Temperature 45 °F 42 °F 26 °F (1996)
Degree Days  
Heating Degree Days 15 12  
Month to date heating degree days 100 118  
Since 1 July heating degree days 4915 4977  
Cooling Degree Days 0 0  
Month to date cooling degree days 0 0  
Year to date cooling degree days 0 0  
Moisture  
Dew Point 45 °F    
Average Humidity 85    
Maximum Humidity 93    
Minimum Humidity 77    
Precipitation  
Precipitation 0.31 in 0.07 in 0.93 in (2000)
Month to date precipitation 2.45 0.74  
Year to date precipitation 28.92 22.68  
Sea Level Pressure  
Sea Level Pressure 29.92 in    
Wind  
Wind Speed 8 mph (SSW)    
Max Wind Speed 17 mph    
Max Gust Speed 26 mph    
Visibility 8 miles    
Events Rain    
T = Trace of Precipitation, MM = Missing Value Source: NWS Daily Summary

Daily Weather History Graph

Daily Weather History Graph

Search for Another Location

Airport or City:

Trip Planner

Search our weather history database for the weather conditions in past years. The results will help you decide how hot, cold, wet, or windy it might be!

Date:

Astronomy

May. 09, 2014 Rise Set
Actual Time 5:44 AM PDT 8:32 PM PDT
Civil Twilight 5:08 AM PDT 9:08 PM PDT
Nautical Twilight 4:24 AM PDT 9:53 PM PDT
Astronomical Twilight 3:31 AM PDT 10:46 PM PDT
Moon 3:16 PM PDT (5/9) 3:09 AM PDT (5/9)
Length of Visible Light 15h 59m
Length of Day
14h 48m
Waxing Gibbous, 74% of the Moon is Illuminated
May 9
Waxing Gibbous
May 14
Full
May 21
Last Quarter
May 28
New
Jun 5
First Quarter

Hourly Weather History & Observations

Time (PDT) Temp. Windchill Dew Point Humidity Pressure Visibility Wind Dir Wind Speed Gust Speed Precip Events Conditions
12:12 AM 50.0 °F - 46.9 °F 89% 29.79 in 4.0 mi SSW 5.8 mph - 0.00 in Rain Light Rain
12:54 AM 48.9 °F - 46.0 °F 90% 29.80 in 9.0 mi SSW 9.2 mph - 0.00 in   Overcast
1:37 AM 48.9 °F - 46.0 °F 90% 29.81 in 6.0 mi SSW 6.9 mph - 0.00 in Rain Light Rain
1:54 AM 48.2 °F - 46.4 °F 93% 29.81 in 5.0 mi SSW 9.2 mph - N/A Rain Light Rain
2:35 AM 48.0 °F - 46.9 °F 96% 29.82 in 3.0 mi SSW 5.8 mph - 0.03 in Rain Light Rain
2:54 AM 48.9 °F - 46.0 °F 90% 29.83 in 5.0 mi SSW 8.1 mph - 0.04 in Rain Light Rain
3:54 AM 48.0 °F - 46.0 °F 93% 29.84 in 10.0 mi SSW 9.2 mph - 0.00 in   Overcast
4:04 AM 48.2 °F - 46.4 °F 93% 29.84 in 8.0 mi SSW 8.1 mph - N/A   Overcast
4:20 AM 48.0 °F - 46.0 °F 93% 29.85 in 2.5 mi SSW 8.1 mph - 0.02 in Rain Light Rain
4:27 AM 48.0 °F - 46.0 °F 93% 29.85 in 4.0 mi SSW 9.2 mph - 0.02 in Rain Light Rain
4:52 AM 48.2 °F - 46.4 °F 93% 29.86 in 10.0 mi SSW 8.1 mph - 0.03 in   Overcast
4:54 AM 48.2 °F - 46.4 °F 93% 29.86 in 10.0 mi SSW 9.2 mph - N/A   Overcast
5:28 AM 46.9 °F - 45.0 °F 93% 29.86 in 10.0 mi SSW 9.2 mph - N/A   Mostly Cloudy
5:54 AM 46.9 °F - 45.0 °F 93% 29.87 in 10.0 mi SSW 8.1 mph - N/A   Mostly Cloudy
6:54 AM 48.0 °F - 45.0 °F 89% 29.89 in 9.0 mi SSW 10.4 mph - N/A   Scattered Clouds
7:54 AM 48.9 °F - 46.0 °F 90% 29.91 in 9.0 mi SSW 6.9 mph - 0.00 in   Partly Cloudy
8:54 AM 48.9 °F - 45.0 °F 86% 29.92 in 5.0 mi SSW 10.4 mph - 0.00 in Rain Light Rain
9:54 AM 48.9 °F - 46.0 °F 90% 29.94 in 6.0 mi SSW 9.2 mph - 0.02 in Rain Light Rain
10:54 AM 50.0 °F - 46.0 °F 86% 29.94 in 10.0 mi SSW 6.9 mph - 0.01 in   Overcast
11:54 AM 52.0 °F - 44.1 °F 74% 29.94 in 10.0 mi WSW 11.5 mph 17.3 mph N/A   Mostly Cloudy
12:54 PM 51.1 °F - 45.0 °F 80% 29.94 in 10.0 mi SSW 8.1 mph - 0.01 in   Mostly Cloudy
1:49 PM 51.8 °F - 44.6 °F 76% 29.94 in 2.5 mi SSW 13.8 mph 18.4 mph 0.00 in Rain Light Rain
1:54 PM 50.0 °F - 45.0 °F 83% 29.95 in 3.0 mi SSW 5.8 mph 18.4 mph 0.02 in Rain Rain
2:54 PM 51.1 °F - 46.0 °F 83% 29.95 in 8.0 mi SSW 4.6 mph - 0.08 in Rain Light Rain
3:54 PM 51.1 °F - 46.0 °F 83% 29.95 in 10.0 mi SW 11.5 mph - 0.01 in   Mostly Cloudy
4:54 PM 50.0 °F - 45.0 °F 83% 29.95 in 10.0 mi SW 10.4 mph 18.4 mph 0.01 in   Mostly Cloudy
5:54 PM 52.0 °F - 44.1 °F 74% 29.95 in 10.0 mi SSW 9.2 mph - 0.00 in   Mostly Cloudy
6:28 PM 48.0 °F - 43.0 °F 83% 29.96 in 6.0 mi West 10.4 mph - 0.00 in Rain Light Rain
6:54 PM 46.9 °F - 44.1 °F 90% 29.97 in 8.0 mi SW 6.9 mph - 0.03 in Rain Light Rain
7:13 PM 46.9 °F - 43.0 °F 86% 29.96 in 8.0 mi SW 5.8 mph - 0.01 in Rain Light Rain
7:54 PM 46.9 °F - 45.0 °F 93% 29.98 in 9.0 mi South 4.6 mph - 0.01 in   Overcast
8:18 PM 46.9 °F - 45.0 °F 93% 29.98 in 5.0 mi South 6.9 mph - 0.00 in Rain Light Rain
8:33 PM 46.9 °F - 45.0 °F 93% 29.98 in 8.0 mi South 5.8 mph - 0.00 in Rain Light Rain
8:42 PM 46.9 °F - 45.0 °F 93% 29.98 in 9.0 mi South 8.1 mph - 0.00 in Rain Light Rain
8:54 PM 46.9 °F - 44.1 °F 90% 29.99 in 9.0 mi SSW 6.9 mph - 0.00 in Rain Light Rain
9:01 PM 46.9 °F - 44.1 °F 90% 29.98 in 7.0 mi SSW 6.9 mph - 0.00 in Rain Light Rain
9:54 PM 46.4 °F 43.5 °F 44.6 °F 93% 30.01 in 5.0 mi SSW 5.8 mph - N/A Rain Light Rain
10:54 PM 46.0 °F 43.9 °F 44.1 °F 93% 30.02 in 8.0 mi SSW 4.6 mph - 0.01 in Rain Light Rain
11:54 PM 45.0 °F 41.8 °F 43.0 °F 93% 30.03 in 10.0 mi South 5.8 mph - 0.00 in   Overcast